Flag Weather past 2 weeks in Bhilwara, Rajasthan, India

Now
64 °F

Clear.


Feels Like: 64 °F
Forecast: 52 / 83 °F
Wind: No wind

Location: Jaipur / Sanganer

Current Time: Nov 25, 2014 at 2:15:55 AM

Latest Report: Nov 25, 2014 at 12:00 AM


Visibility: 1 mi

Pressure: 30.04 "Hg

Humidity: 37%

Dew point: 37 °F

Location of BhilwaraLocation

Historic Weather in Bhilwara — Graph

°F

Bhilwara temperature yesterday

Maximum temperature yesterday: 82 °F (at 3:00 PM)
Minimum temperature yesterday: 57 °F (at 6:00 AM)
Average temperature yesterday: 68 °F

Past Weeks' High & Low Weather Summary

 TemperatureHumidityPressure
High86 °F (Nov 10, 2:00 PM)64% (Nov 11, 5:30 AM)30.15 "Hg (Nov 11, 5:30 AM)
Low54 °F (Nov 16, 5:30 AM)8% (Nov 15, 4:00 PM)29.89 "Hg (Nov 22, 3:00 PM)
Average71 °F35%30.03 "Hg
* Reported Midnight between Nov 9 and Nov 10 — Midnight between Nov 24 and Nov 25, Bhilwara, Weather by CustomWeather, © 2014

Note: Actual official high and low records may vary slightly from our data, if they occured in-between our weather recording intervals... More about our weather records

Advertising

Bhilwara weather history for previous 24 hours

 ConditionsComfort  
Time TempWeatherWind HumidityBarometerVisibility
12:00 AM
Nov 25
64 °FClear.No wind37%30.04 "Hg1 mi
11:00 PM
Nov 24
68 °FClear.6 mph33%30.07 "Hg1 mi
10:00 PM68 °FClear.6 mph35%30.07 "Hg1 mi
9:00 PM68 °FClear.5 mph33%30.04 "Hg1 mi
8:00 PM70 °FClear.No wind33%30.04 "Hg1 mi
7:00 PM72 °FClear.No wind36%30.01 "Hg1 mi
6:00 PM75 °FClear.No wind27%30.01 "Hg1 mi
5:00 PM79 °FClear.No wind21%29.98 "Hg1 mi
4:00 PM81 °FClear.5 mph18%29.98 "Hg1 mi
3:00 PM82 °FClear.6 mph17%29.98 "Hg1 mi
12:00 PM79 °FClear.3 mph21%30.07 "Hg1 mi
11:00 AM77 °FClear.7 mph22%30.09 "Hg1 mi
7:30 AM57 °FClear.No wind51%30.04 "Hg1 mi
7:00 AM57 °FPassing clouds.No wind51%30.04 "Hg1 mi
6:30 AM57 °FPassing clouds.No wind51%30.04 "Hg1 mi
6:00 AM57 °FPassing clouds.No wind51%30.01 "Hg1 mi
5:30 AM59 °FPassing clouds.No wind48%30.01 "Hg1 mi
5:00 AM59 °FPassing clouds.No wind45%29.98 "Hg1 mi
4:00 AM61 °FPassing clouds.No wind39%29.98 "Hg1 mi
3:00 AM63 °FPassing clouds.No wind37%30.01 "Hg1 mi
2:00 AM66 °FPassing clouds.2 mph30%30.01 "Hg1 mi
Weather by CustomWeather, © 2014

See weather overviewHow to use our weather pages